THORAD AGENA D DEB, 4867

Orbit data source: Space-Track

THORAD AGENA D DEB, 4867 is space debris in SSO originally from a launch on Wed, 08 Apr 1970 UTC launched from the Air Force Western Test Range (AFWTR). Debris objects in space refer to the collection of defunct objects orbiting the Earth. Examples of debris include non-operational satellites, rocket bodies, and fragments generated from explosions, collisions, or faulty payload assembly.

Loading next visibility...
Identifier
4867, 1970-025EX
Orbit
SSO
Country
Flag of USUS
Related business
Manufacturer
Unknown
Mission
Spacecraft
Bus & Motor
Unknown
Mass
Unknown
Launch date (UTC)
1970-04-08 (56 years ago)
Launch vehicle
Unknown
Launch site
Air Force Western Test Range (AFWTR)
Object type
Payload
Rocket body
Debris
Shape & HBR
Unknown shape, 0.1 m
Radar Cross Section
Small (<0.1 m²)

Expand to show TLE details & history
Last TLE update: 11 hours ago

TLE from 11 hours ago
0 THORAD AGENA D DEB
1 04867U 70025EX  26036.80791858  .00000839  00000-0  54686-3 0  9994
2 04867  99.6251 333.2829 0124871 111.6380 249.8138 14.01649546836330
Epoch: 2026-02-05T19:23Z
TLE epoch observation values (Epoch: 2026-02-05T19:23:24.165Z)
Latitude
0.00004°
Longitude
-93.52263°
Altitude
923.256 km
Speed
7.374 km/s
True Right ascension
22h 13m 07s
True Declination
0° 00' 00"
Sunlit
Object was in daylight at epoch
Visualization orbit readout
Latitude
Unknown
Longitude
Unknown
Altitude
Unknown
Speed
Unknown
Apparent Right ascension
Unknown
Apparent Declination
Unknown
Sunlit
N/A
Visualization observer readout
Local Sidereal Time
08:50:37
Azimuth
Unknown
Elevation
Unknown
Doppler factor
Unknown
Orbital elements
Apogee altitude
976.016 km
Perigee altitude
794.617 km
Semi-major axis
7,263.454 km
Eccentricity
0.01249
Inclination
99.6251°
RAAN
333.2829°
Arg. of periapsis
111.638°
True anomaly
248.47809°
Mean anomaly
249.8138°
Eccentric anomaly
249.14521°
Mean motion
3.50613 °/min
Orbital period
102.68 mins
BSTAR
0.00054686

Documentation

Showing up to 5 results
|